Regional Weather Roundup
Issued by NWS Little Rock, AR

Home | Current Version | Previous Version | Graphics & Text | Print | Product List | Glossary On
Versions: 1 2 3 4 5 6 7 8 9 10 11 12 13 14 15 16 17 18 19 20 21 22 23 24 25 26 27 28 29 30 31 32 33 34 35 36 37 38 39 40 41 42 43 44 45 46 47 48 49 50
000
ASUS44 KLZK 142105
RWRLZK

WEATHER ROUNDUP FOR ARKANSAS
NATIONAL WEATHER SERVICE LITTLE ROCK AR
400 PM CDT SUN SEP 14 2014

NOTE: "FAIR" INDICATES FEW OR NO CLOUDS BELOW 12,000 FEET WITH NO
SIGNIFICANT WEATHER AND/OR OBSTRUCTIONS TO VISIBILITY.

ARZ001-003-010-029-142200-
NORTHWEST ARKANSAS

CITY           SKY/WX    TMP DP  RH WIND       PRES   REMARKS
FAYETTEVILLE   SUNNY     76  57  51 S8        30.17F
FORT SMITH     SUNNY     78  59  51 E7        30.16F
HARRISON       SUNNY     73  54  51 SE9       30.19F
BENTONVILLE    SUNNY     75  55  50 SW3       30.18F
ROGERS         SUNNY     75  56  51 VRB7      30.18F
SILOAM SPGS    SUNNY     77  57  50 S12       30.18F
HIGHFILL       SUNNY     76  56  49 S9        30.17F
SPRINGDALE     MOSUNNY   75  57  53 SE7       30.19F
$$

ARZ004-005-016-142200-
NORTH CENTRAL ARKANSAS

CITY           SKY/WX    TMP DP  RH WIND       PRES   REMARKS
BATESVILLE     SUNNY     75  54  46 CALM      30.18F
FLIPPIN        SUNNY     73  50  43 S6        30.19F
MTN HOME       SUNNY     73  52  47 VRB3      30.18F
$$

ARZ040-041-142200-
WEST CENTRAL ARKANSAS

CITY           SKY/WX    TMP DP  RH WIND       PRES   REMARKS
MENA           MOSUNNY   77  63  61 CALM      30.18F
MOUNT IDA      SUNNY     77  60  55 CALM      30.16F
$$

ARZ009-017-025-026-028-142200-
NORTHEAST ARKANSAS

CITY           SKY/WX    TMP DP  RH WIND       PRES   REMARKS
CORNING          N/A     72  48  43 E5        30.21F
JONESBORO      SUNNY     74  51  44 E6        30.19F
NEWPORT        SUNNY     75  54  48 NE6       30.20F
WALNUT RIDGE   SUNNY     72  52  49 NE6       30.20F
BLYTHEVILLE    SUNNY     76  56  49 NE9       30.19F
$$

ARZ022-023-033-042-044-142200-
CENTRAL ARKANSAS

CITY           SKY/WX    TMP DP  RH WIND       PRES   REMARKS
LITTLE ROCK    MOSUNNY   78  56  46 VRB6      30.18F
N LITTLE ROCK  MOSUNNY   76  59  55 E8        30.18F
JACKSONVILLE   MOSUNNY   77  56  48 E8        30.18F
SEARCY         MOSUNNY   76  55  47 E6        30.19F
HOT SPRINGS    SUNNY     78  58  49 NE5       30.17F
RUSSELLVILLE   MOSUNNY   75  55  49 S5        30.18F
CLINTON        FAIR      75  57  53 E3        30.19S
$$

ARZ036-142200-
EAST ARKANSAS

CITY           SKY/WX    TMP DP  RH WIND       PRES   REMARKS
WEST MEMPHIS   MOSUNNY   77  57  50 N8        30.16F
$$

ARZ050-053-066-070-073-142200-
SOUTHWEST ARKANSAS

CITY           SKY/WX    TMP DP  RH WIND       PRES   REMARKS
ARKADELPHIA    FAIR      79  63  57 N8        30.15F
CAMDEN         SUNNY     82  59  44 N5        30.14F
TEXARKANA      SUNNY     79  63  57 NE6       30.15F
EL DORADO      SUNNY     80  63  55 N6        30.14F
DE QUEEN       SUNNY     79  63  57 SE5       30.14F
$$

ARZ056-057-069-142200-
SOUTHEAST ARKANSAS

CITY           SKY/WX    TMP DP  RH WIND       PRES   REMARKS
PINE BLUFF     SUNNY     77  58  51 N7        30.16F
STUTTGART      MOSUNNY   75  59  57 NE8       30.18F
MONTICELLO     SUNNY     81  61  50 VRB6      30.14F

$$





USA.gov is the U.S. government's official web portal to all federal, state and local government web resources and services.